STARLINK-3369, 51142

Orbit data source: Space-Track

STARLINK-3369, 51142 is a payload satellite owned by SpaceX/Seattle (US) in LEO that was launched on Wed, 19 Jan 2022 UTC via an FALCON 9 launch vehicle from the Air Force Eastern Test Range (AFETR). Payload-class satellites include a variety of spacecraft equipped with specific instruments for various scientific and technological missions. These include communications satellites like Starlink; space stations such as the ISS; scientific satellites like the Hubble; Earth observation satellites from companies like Planet Labs, Umbra, and HawkEye 360; GPS; miniature CubeSats for education and research; and military/defense satellites.

Loading next visibility...
Identifier
51142, 2022-005AQ
Orbit
LEO
Country
Flag of USUS
Related business
Manufacturer
SpaceX/Seattle
Mission
Partially operational Commercial Communications
Bus & Motor
STARLINK, Unknown motor
Mass
297 kg wet, ~275 kg dry
Launch date (UTC)
2022-01-19 (4 years ago)
Launch vehicle
FALCON 9
Launch site
Air Force Eastern Test Range (AFETR)
Object type
Payload
Rocket body
Debris
Shape & HBR
Box + 1 Pan, 10.1 m
Radar Cross Section
13.562 m², Large (>1 m²)

Expand to show TLE details & history
Last TLE update: 1 day ago

TLE from 1 day ago
0 STARLINK-3369
1 51142U 22005AQ  26093.52706163  .00037693  00000-0  17007-2 0  9997
2 51142  53.2078 168.4465 0003473 320.5837  39.4907 15.20669163232759
Epoch: 2026-04-03T12:38Z
TLE epoch observation values (Epoch: 2026-04-03T12:38:58.124Z)
Latitude
-0.00005°
Longitude
146.84437°
Altitude
502.878 km
Speed
7.615 km/s
True Right ascension
11h 13m 47s
True Declination
0° 00' 00"
Sunlit
Object was in full shadow at epoch
Visualization orbit readout
Latitude
Unknown
Longitude
Unknown
Altitude
Unknown
Speed
Unknown
Apparent Right ascension
Unknown
Apparent Declination
Unknown
Sunlit
N/A
Visualization observer readout
Local Sidereal Time
20:30:00
Azimuth
Unknown
Elevation
Unknown
Doppler factor
Unknown
Orbital elements
Apogee altitude
506.459 km
Perigee altitude
501.678 km
Semi-major axis
6,882.206 km
Eccentricity
0.00035
Inclination
53.2078°
RAAN
168.4465°
Arg. of periapsis
320.5837°
True anomaly
39.51602°
Mean anomaly
39.4907°
Eccentric anomaly
39.50336°
Mean motion
3.80147 °/min
Orbital period
94.7 mins
BSTAR
0.0017007
Loading maneuver chart data...
Computing Atmospheric mass density...
Loading historical data...
Loading historical data...
Loading historical data...
Loading historical data...
Loading historical data...
Loading historical data...
Loading historical data...

Documentation

Showing up to 5 results
|